Showing default

ANGOSAT 2, 54033

Orbit data source: Space-Track

ANGOSAT 2, 54033 is a payload satellite owned by GGPEN (AO) in GEO that was launched on Wed, 12 Oct 2022 UTC via a PROTON-M/DM-3 launch vehicle from the Tyuratam Missile And Space Complex (TTMTR). Payload-class satellites include a variety of spacecraft equipped with specific instruments for various scientific and technological missions. These include communications satellites like Starlink; space stations such as the ISS; scientific satellites like the Hubble; Earth observation satellites from companies like Planet Labs, Umbra, and HawkEye 360; GPS; miniature CubeSats for education and research; and military/defense satellites.

Not visible in the next 10 days
Identifier
54033, 2022-131A
Orbit
GEO
Last TLE update
5 hours ago
Origin
Manufacturer
Resehetnev ISS
Mission
Operational Civil Communications
Bus & Motor
EKSPRESS-1000N, AOCS
Mass
2,150 kg wet, ~1,800 kg dry
Launch date (UTC)
2022-10-12 (3 years ago)
Launch vehicle
PROTON-M/DM-3
Launch site
Tyuratam Missile And Space Complex (TTMTR)
Object type
Payload
Rocket body
Debris
Shape & HBR
Box + 2 Pan, 15 m
Radar Cross Section
16.987 m², Large (>1 m²)

Expand to show TLE details & history

TLE from 5 hours ago
0 ANGOSAT 2
1 54033U 22131A   25192.20872771  .00000146  00000-0  00000+0 0  9997
2 54033   0.0240 131.9104 0000577 145.6032 109.9825  1.00270010 10064
Epoch: 2025-07-11T05:00Z
TLE epoch observation values (Epoch: 2025-07-11T05:00:34.074Z)
Latitude
-0.01424°
Longitude
23.00063°
Altitude
35,787.417 km
Speed
3.075 km/s
True Right ascension
01h 50m 01s
True Declination
0° 00' 51"
Sunlit
Object was in daylight at epoch
Visualization orbit readout
Latitude
0.01048°
Longitude
100.73815°
Altitude
35,788.978 km
Speed
3.075 km/s
Apparent Right ascension
07h 20m 28s
Apparent Declination
-5° 07' 09"
Sunlit
Object is in daylight
Visualization observer readout
Local Sidereal Time
22:28:32
Azimuth
63.246° ENE
Elevation
-35.318°
Doppler factor
1
Orbital elements
Apogee altitude
35,790.596 km
Perigee altitude
35,785.73 km
Semi-major axis
42,166.3 km
Eccentricity
0.00006
Inclination
0.024°
RAAN
131.9104°
Arg. of periapsis
145.6032°
True anomaly
Unknown
Mean anomaly
109.9825°
Eccentric anomaly
Unknown
Mean motion
0.25067 °/min
Orbital period
1,436.18 mins
BSTAR
0
Loading historical data...
54033 neighbors
Loading maneuver chart data...
Loading SW <> Apogee altitude chart data...
Loading historical data...
Loading historical data...
Loading historical data...
Loading historical data...
Loading historical data...
Loading historical data...
Loading historical data...
Other satellites on launch #131 in the year 2022 (2022-10-12 UTC)

ANGOSAT 2 Visibility

Observer location: undefined°, undefined°

ANGOSAT 2 is likely not visible in the next few days
Span
Click to sort rows by Start time (UTC) header in descending order
Start Az.
Max El. time (UTC)
Max El. Az.
Max El.
End time (UTC)
End Az.
|